Marshfield, WI

5:28 AM CST on February 20, 2017 (GMT -0600)
Marshfield Municipal

Weather History for KMFI - March, 2013

Change the Weather History Date:

Tuesday, March 5, 2013

  Actual Average Record
Temperature  
Mean Temperature 24 °F -  
Max Temperature 27 °F 35 °F 49 °F (1974)
Min Temperature 21 °F 16 °F -21 °F (1917)
Degree Days  
Heating Degree Days 41    
Moisture  
Dew Point 19 °F    
Average Humidity 81    
Maximum Humidity 88    
Minimum Humidity 65    
Precipitation  
Precipitation 0.01 in - - ()
Sea Level Pressure  
Sea Level Pressure 30.03 in    
Wind  
Wind Speed 10 mph (NE)    
Max Wind Speed 15 mph    
Max Gust Speed 20 mph    
Visibility 3 miles    
Events Fog , Snow    
Averages and records for this station are not official NWS values.
T = Trace of Precipitation, MM = Missing Value Source: NWS Daily Summary

Daily Weather History Graph

Daily Weather History Graph

Search for Another Location

Airport or City:

Trip Planner

Search our weather history database for the weather conditions in past years. The results will help you decide how hot, cold, wet, or windy it might be!

Date:

Astronomy

Mar. 05, 2013 Rise Set
Actual Time 6:30 AM CST 5:54 PM CST
Civil Twilight 6:01 AM CST 6:23 PM CST
Nautical Twilight 5:27 AM CST 6:57 PM CST
Astronomical Twilight 4:54 AM CST 7:31 PM CST
Moon 1:53 AM CST (3/5) 11:22 AM CST (3/5)
Length of Visible Light 12h 21m
Length of Day
11h 23m
Last Quarter, 40% of the Moon is Illuminated
Mar 5
Last Quarter
Mar 11
New
Mar 19
First Quarter
Mar 27
Full
Apr 2
Last Quarter

Hourly Weather History & Observations

Time (CST) Temp. Windchill Dew Point Humidity Pressure Visibility Wind Dir Wind Speed Gust Speed Precip Events Conditions
1:54 AM 24.1 °F 13.1 °F 14.0 °F 65% 30.09 in 10.0 mi East 11.5 mph - 0.00 in   Overcast
2:54 AM 24.1 °F 11.5 °F 15.1 °F 69% 30.05 in 10.0 mi East 15.0 mph - N/A   Overcast
3:54 AM 23.0 °F 10.1 °F 14.0 °F 68% 30.03 in 10.0 mi East 15.0 mph - N/A   Overcast
4:54 AM 23.0 °F 12.4 °F 14.0 °F 68% 30.04 in 10.0 mi East 10.4 mph - N/A   Overcast
7:12 AM 21.2 °F 11.7 °F 17.6 °F 86% 29.99 in 1.5 mi ENE 8.1 mph - 0.00 in Snow Light Snow
7:35 AM 21.2 °F 12.6 °F 17.6 °F 86% 30.00 in 3.0 mi ENE 6.9 mph - 0.00 in Snow Light Snow
7:43 AM 21.2 °F 13.6 °F 17.6 °F 86% 30.00 in 1.8 mi ENE 5.8 mph - 0.00 in Snow Light Snow
7:54 AM 21.9 °F 13.4 °F 18.0 °F 85% 30.06 in 1.2 mi NE 6.9 mph - 0.00 in Snow Light Snow
8:24 AM 23.0 °F 15.8 °F 19.4 °F 86% 30.00 in 0.8 mi ENE 5.8 mph - 0.00 in Snow Light Snow
8:47 AM 23.0 °F 13.9 °F 19.4 °F 86% 30.00 in 1.2 mi ENE 8.1 mph - 0.00 in Snow Light Snow
8:54 AM 23.0 °F 14.7 °F 19.0 °F 85% 30.07 in 1.2 mi ENE 6.9 mph - 0.00 in Snow Light Snow
9:20 AM 23.0 °F 12.4 °F 19.4 °F 86% 30.01 in 0.8 mi ENE 10.4 mph - 0.00 in Snow Light Snow
9:36 AM 23.0 °F 13.1 °F 19.4 °F 86% 30.00 in 0.8 mi ENE 9.2 mph - 0.00 in Snow Light Snow
9:54 AM 23.0 °F 11.7 °F 19.0 °F 85% 30.06 in 0.8 mi ENE 11.5 mph - 0.00 in Snow Light Snow
10:18 AM 23.0 °F 11.7 °F 19.4 °F 86% 30.00 in 1.0 mi ENE 11.5 mph - 0.00 in Snow Light Snow
10:30 AM 24.8 °F 14.0 °F 19.4 °F 80% 29.99 in 1.2 mi ENE 11.5 mph - 0.00 in Snow Light Snow
10:36 AM 23.0 °F 11.7 °F 19.4 °F 86% 29.99 in 0.8 mi ENE 11.5 mph - 0.00 in Snow Light Snow
10:47 AM 23.0 °F 11.7 °F 19.4 °F 86% 29.99 in 0.8 mi NE 11.5 mph - 0.00 in Snow Light Snow
10:54 AM 23.0 °F 13.1 °F 19.9 °F 88% 30.05 in 0.8 mi ENE 9.2 mph - 0.00 in Snow Light Snow
11:49 AM 24.8 °F 12.9 °F 19.4 °F 80% 29.96 in 0.8 mi ENE 13.8 mph - 0.01 in Snow Light Snow
11:54 AM 24.1 °F 12.5 °F 19.9 °F 84% 30.02 in 0.8 mi ENE 12.7 mph - 0.01 in Snow Light Snow
12:07 PM 24.8 °F 14.0 °F 19.4 °F 80% 29.96 in 1.0 mi ENE 11.5 mph - 0.00 in Snow Light Snow
12:14 PM 24.8 °F 13.4 °F 19.4 °F 80% 29.96 in 1.5 mi ENE 12.7 mph - 0.00 in Snow Light Snow
12:24 PM 24.8 °F 14.0 °F 19.4 °F 80% 29.96 in 3.0 mi ENE 11.5 mph - 0.00 in Snow Light Snow
12:43 PM 26.6 °F 17.5 °F 19.4 °F 74% 29.96 in 1.8 mi ENE 9.2 mph - 0.00 in Snow Light Snow
12:54 PM 27.0 °F 16.7 °F 18.0 °F 69% 30.02 in 2.0 mi NE 11.5 mph 19.6 mph 0.00 in Snow Light Snow
1:28 PM 26.6 °F 15.2 °F 19.4 °F 74% 29.96 in 3.0 mi NE 13.8 mph - 0.00 in Snow Light Snow
1:31 PM 26.6 °F 16.2 °F 17.6 °F 69% 29.96 in 2.5 mi ENE 11.5 mph - 0.00 in Snow Light Snow
1:54 PM 26.1 °F 15.0 °F 19.9 °F 78% 30.02 in 1.5 mi NE 12.7 mph - 0.00 in Snow Light Snow
2:04 PM 26.6 °F 16.8 °F 19.4 °F 74% 29.97 in 1.8 mi NE 10.4 mph - 0.00 in Snow Light Snow
2:20 PM 24.8 °F 13.4 °F 21.2 °F 86% 29.97 in 1.0 mi NNE 12.7 mph - 0.00 in Snow Light Snow
2:45 PM 24.8 °F 14.0 °F 21.2 °F 86% 29.98 in 0.8 mi NNE 11.5 mph - 0.00 in Snow Light Snow
2:54 PM 25.0 °F 17.1 °F 21.0 °F 85% 30.05 in 0.8 mi NNE 6.9 mph - 0.00 in Snow Light Snow
3:31 PM 24.8 °F 16.1 °F 21.2 °F 86% 30.00 in 0.8 mi North 8.1 mph - 0.00 in Snow Light Snow
3:54 PM 25.0 °F 15.5 °F 21.9 °F 88% 30.07 in 0.5 mi NNE 9.2 mph - 0.00 in Fog , Snow Snow
4:10 PM 26.6 °F 17.5 °F 21.2 °F 80% 30.01 in 0.8 mi NNE 9.2 mph - 0.00 in Snow Light Snow
4:19 PM 26.6 °F 19.1 °F 21.2 °F 80% 30.01 in 1.0 mi North 6.9 mph - 0.00 in Snow Light Snow
4:51 PM 26.6 °F 20.0 °F 23.0 °F 86% 30.02 in 1.2 mi North 5.8 mph - 0.00 in Snow Light Snow
4:54 PM 26.1 °F 17.6 °F 23.0 °F 88% 30.09 in 1.2 mi North 8.1 mph - 0.00 in Snow Light Snow
5:35 PM 26.6 °F 17.5 °F 21.2 °F 80% 30.04 in 2.0 mi North 9.2 mph - 0.00 in Snow Light Snow
5:41 PM 26.6 °F 17.5 °F 21.2 °F 80% 30.04 in 3.0 mi North 9.2 mph - 0.00 in Snow Light Snow
5:54 PM 26.1 °F 16.8 °F 21.9 °F 84% 30.11 in 3.0 mi North 9.2 mph - 0.00 in Snow Light Snow
6:02 PM 24.8 °F 16.1 °F 21.2 °F 86% 30.05 in 2.5 mi North 8.1 mph - 0.00 in Snow Light Snow
6:09 PM 24.8 °F 15.3 °F 21.2 °F 86% 30.05 in 4.0 mi North 9.2 mph - 0.00 in Snow Light Snow
6:54 PM 25.0 °F 14.8 °F 21.0 °F 85% 30.13 in 10.0 mi North 10.4 mph - 0.00 in   Overcast
7:54 PM 24.1 °F 15.2 °F 19.9 °F 84% 30.13 in 10.0 mi North 8.1 mph - N/A   Partly Cloudy
8:54 PM 24.1 °F 15.2 °F 19.0 °F 81% 30.15 in 10.0 mi North 8.1 mph - N/A   Mostly Cloudy
9:54 PM 25.0 °F 16.3 °F 19.0 °F 78% 30.17 in 10.0 mi North 8.1 mph - N/A   Overcast
10:54 PM 24.1 °F 13.7 °F 18.0 °F 77% 30.19 in 10.0 mi NNE 10.4 mph - N/A   Overcast
11:54 PM 24.1 °F 13.1 °F 18.0 °F 77% 30.21 in 10.0 mi North 11.5 mph - N/A   Overcast